Погода в Яльчикском

Россия / Республика Марий Эл     56°01′24″N   48°23′21″E
темп.,
°C
ветер,
м/с
пор.,
м/с
влажн.,
%
обл.,
%
осадки,
мм/ч
давл.,
гПа
погр.,
м
19 мая, ср
ср1900:00+16в3108175 0.0 1016197
03:00+16вюв312797 0.0 1017375
06:00+18вюв412715 0.0 1018401
09:00+22вюв69515 0.0 1018792
12:00+25вюв68401 0.0 10171298
15:00+25вюв68410 0.0 10171436
18:00+23вюв410550 0.0 1016602
21:00+19вюв413710 0.0 1016361
20 мая, чт
чт2000:00+17вюв4137338 0.0 1016325
03:00+16вюв413735 0.0 1016349
06:00+18юв513670 0.0 1016484
09:00+22юв6105036 0.0 10161115
12:00+25юв79420 0.0 10151942
15:00+25юв69415 0.0 10132536
18:00+21ююв495459 0.0 1012865
21:00+15в388712 0.5 1012174
21 мая, пт
пт2100:00+15ююв3990100 0.3 1010385
03:00+14ю5109428 1.1 1011571
06:00+15ююв49905 0.0 1012455
09:00+18ююз587128 0.9 10121138
12:00+20ююз5864100 2.1 10121664
15:00+19юз476693 2.9 10131079
18:00+18юз4877100 0.8 1013635
21:00+13зюз39944 1.7 1015280
22 мая, сб
сб2200:00+12зюз31095100 0.0 1016378
03:00+10юз269896 0.0 1017171
06:00+12з3591100 0.0 1019288
09:00+16зсз3467100 0.0 1020835
12:00+18зюз3354100 0.0 10211204
15:00+18юз3451100 0.0 10211439
18:00+15юз3681100 0.1 1021265
21:00+13ю2497100 0.9 1020101
23 мая, вс
вс2300:00+12вюв2499100 7.1 1021191
03:00+12в2698100 8.3 1020252
06:00+13в2694100 0.0 1021274
09:00+15юв3685100 0.0 1021519
12:00+16вюв4794100 3.6 1019374
15:00+18вюв41088100 3.8 1017445
18:00+20вюв61382100 0.0 1015597
21:00+18вюв61686100 0.0 1013477